EW8829 Weather Reports


Display with metric or nautical units.
time (UTC)temp
F
wind
direction
speed
MPH
gust
MPH
rain 1hr
in
rain 24hr
in
rain mn
in
humidity
%
barometer
mb
20260506003429 60 33 3.0 3.0 0.00 0.04 0.04 95 1005.9
20260506002925 60 34 3.0 3.0 0.00 0.04 0.04 95 1005.7
20260506002421 60 61 2.0 2.0 0.00 0.04 0.04 94 1005.8
20260506001916 60 57 1.0 2.0 0.00 0.04 0.04 94 1005.7
20260506001414 60 52 2.0 2.0 0.00 0.04 0.04 94 1005.5
20260506000911 60 345 0.0 1.0 0.00 0.04 0.04 94 1005.4
20260506000409 61 332 1.0 2.0 0.00 0.04 0.04 93 1005.4
20260505235905 62 50 1.0 2.0 0.00 0.04 0.04 93 1005.7
20260505235403 61 347 0.0 1.0 0.00 0.04 0.04 93 1005.4
20260505234900 61 38 0.0 0.0 0.00 0.04 0.04 93 1005.3
20260505234358 62 73 1.0 1.0 0.00 0.04 0.04 93 1005.4
20260505233854 62 44 0.0 1.0 0.00 0.04 0.04 93 1005.3
20260505233352 62 67 0.0 1.0 0.00 0.04 0.04 92 1005.5
20260505232849 62 58 1.0 2.0 0.00 0.04 0.04 91 1005.5
20260505232347 63 37 0.0 1.0 0.00 0.04 0.04 90 1005.3
20260505231843 63 33 1.0 2.0 0.00 0.04 0.04 90 1005.5
20260505231341 63 322 0.0 1.0 0.00 0.04 0.04 91 1005.3
20260505230839 63 230 0.0 1.0 0.00 0.04 0.04 90 1005.4
20260505230336 63 89 0.0 2.0 0.00 0.04 0.04 90 1005.2
20260505225832 63 22 0.0 1.0 0.00 0.04 0.04 89 1005.1
20260505225330 63 20 2.0 3.0 0.00 0.04 0.04 88 1005.5
20260505224825 63 86 2.0 2.0 0.00 0.04 0.04 90 1005.1
20260505224323 63 113 3.0 3.0 0.00 0.04 0.04 87 1005.2
20260505223820 64 319 0.0 2.0 0.00 0.04 0.04 85 1005.5
20260505223317 65 356 0.0 2.0 0.02 0.04 0.04 83 1005.2
20260505222812 65 258 2.0 3.0 0.02 0.04 0.04 81 1005.1
20260505222309 65 40 0.0 3.0 0.00 0.04 0.04 79 1005.2
20260505221806 66 65 0.0 6.0 0.00 0.04 0.04 77 1005.5
20260505221302 66 138 4.0 4.0 0.00 0.04 0.04 76 1005.3
20260505220800 66 175 2.0 5.0 0.00 0.04 0.04 78 1005.1
20260505220257 67 219 3.0 5.0 0.00 0.04 0.04 75 1005.0
20260505215755 67 66 1.0 1.0 0.00 0.04 0.04 75 1004.3
20260505215252 67 80 4.0 4.0 0.00 0.04 0.04 73 1004.5
20260505214750 67 213 0.0 4.0 0.00 0.04 0.04 75 1004.6
20260505214247 68 83 1.0 2.0 0.00 0.04 0.04 76 1004.6
20260505213744 67 261 2.0 5.0 0.00 0.04 0.04 75 1004.6
20260505213242 67 64 2.0 4.0 0.00 0.04 0.04 76 1004.3
20260505212737 68 89 3.0 3.0 0.00 0.04 0.04 75 1004.4
20260505212235 68 146 2.0 4.0 0.00 0.04 0.04 77 1004.2
20260505211732 68 153 2.0 4.0 0.00 0.04 0.04 77 1004.4
20260505211229 68 102 2.0 2.0 0.00 0.04 0.04 78 1004.2
20260505210725 67 173 0.0 2.0 0.00 0.04 0.04 80 1004.4
20260505210222 66 133 1.0 3.0 0.00 0.04 0.04 80 1004.4
20260505205720 66 49 0.0 3.0 0.00 0.04 0.04 82 1004.5
20260505205218 66 103 3.0 3.0 0.00 0.04 0.04 82 1004.5
20260505204714 65 148 2.0 3.0 0.00 0.04 0.04 83 1004.8
20260505204212 65 198 0.0 3.0 0.00 0.04 0.04 82 1004.8
20260505203709 64 19 2.0 2.0 0.00 0.04 0.04 88 1004.6
20260505203206 63 35 1.0 2.0 0.00 0.04 0.04 90 1004.5
20260505202701 62 22 3.0 4.0 0.00 0.04 0.04 89 1004.8
20260505202158 62 30 3.0 4.0 0.00 0.04 0.04 92 1005.0
20260505201654 61 106 1.0 2.0 0.00 0.04 0.04 94 1005.0
20260505201152 61 89 2.0 3.0 0.02 0.04 0.04 95 1004.9
20260505200650 61 51 2.0 6.0 0.02 0.04 0.04 94 1004.9
20260505200147 61 30 2.0 6.0 0.00 0.03 0.03 92 1005.0
20260505195642 61 349 2.0 7.0 0.02 0.03 0.03 92 1005.0
20260505195140 61 96 7.0 7.0 0.00 0.03 0.03 90 1005.5
20260505194637 61 340 2.0 10.0 0.09 0.03 0.03 89 1005.9
20260505194133 62 277 11.0 13.0 0.14 0.03 0.03 88 1006.1
20260505193630 66 80 7.0 18.0 0.00 0.00 0.00 76 1005.4
20260505193127 76 188 12.0 13.0 0.00 0.00 0.00 39 1003.8
20260505192626 76 264 6.0 10.0 0.00 0.00 0.00 38 1003.1
20260505192123 76 243 9.0 18.0 0.00 0.00 0.00 37 1002.7
20260505191621 76 261 10.0 17.0 0.00 0.00 0.00 38 1002.9
20260505191119 77 266 8.0 15.0 0.00 0.00 0.00 38 1002.7
20260505190614 77 218 13.0 19.0 0.00 0.00 0.00 37 1002.6
20260505190109 78 201 2.0 15.0 0.00 0.00 0.00 40 1002.9
20260505185607 78 166 10.0 21.0 0.00 0.00 0.00 38 1002.6
20260505185102 78 219 9.0 12.0 0.00 0.00 0.00 39 1002.9
20260505184559 77 257 8.0 23.0 0.00 0.00 0.00 39 1002.8
20260505184056 77 173 10.0 23.0 0.00 0.00 0.00 39 1003.1
20260505183553 77 181 7.0 17.0 0.00 0.00 0.00 42 1003.0
20260505183051 77 290 9.0 22.0 0.00 0.00 0.00 45 1003.1
20260505182541 77 318 6.0 13.0 0.00 0.00 0.00 48 1003.1
20260505182037 77 332 2.0 12.0 0.00 0.00 0.00 47 1003.4
20260505181534 77 247 2.0 9.0 0.00 0.00 0.00 47 1003.7
20260505181032 76 154 3.0 16.0 0.00 0.00 0.00 49 1003.7
20260505180527 76 259 4.0 15.0 0.00 0.00 0.00 48 1003.7
20260505180026 76 141 7.0 12.0 0.00 0.00 0.00 47 1004.0
20260505175526 76 214 4.0 15.0 0.00 0.00 0.00 46 1004.0
20260505175023 76 248 5.0 15.0 0.00 0.00 0.00 47 1003.9
20260505174520 76 272 10.0 19.0 0.00 0.00 0.00 47 1004.1
20260505174016 76 205 3.0 13.0 0.00 0.00 0.00 46 1004.4
20260505173513 76 331 2.0 11.0 0.00 0.00 0.00 47 1004.2
20260505173010 76 175 3.0 15.0 0.00 0.00 0.00 49 1004.2
20260505172508 75 250 6.0 16.0 0.00 0.00 0.00 47 1004.4
20260505172008 75 245 10.0 11.0 0.00 0.00 0.00 48 1004.1
20260505171504 75 242 6.0 13.0 0.00 0.00 0.00 47 1004.2
20260505171001 75 237 5.0 12.0 0.00 0.00 0.00 46 1004.2
20260505170458 75 324 2.0 15.0 0.00 0.00 0.00 47 1004.1
20260505165953 75 258 6.0 20.0 0.00 0.00 0.00 47 1004.1
20260505165450 76 184 1.0 10.0 0.00 0.00 0.00 46 1003.7
20260505164945 76 148 3.0 7.0 0.00 0.00 0.00 48 1003.8
20260505164442 76 222 4.0 6.0 0.00 0.00 0.00 45 1003.8
20260505163940 76 122 0.0 8.0 0.00 0.00 0.00 46 1003.7
20260505163438 76 225 4.0 8.0 0.00 0.00 0.00 46 1003.8
20260505162937 75 214 4.0 13.0 0.00 0.00 0.00 47 1004.0
20260505162433 75 272 5.0 17.0 0.00 0.00 0.00 47 1004.2
20260505161930 75 286 6.0 14.0 0.00 0.00 0.00 46 1004.2
20260505161426 75 247 4.0 18.0 0.00 0.00 0.00 46 1004.1
20260505160924 75 283 5.0 12.0 0.00 0.00 0.00 45 1004.3
20260505160422 76 222 13.0 18.0 0.00 0.00 0.00 45 1004.5
20260505152858 76 308 4.0 12.0 0.00 0.00 0.00 46 1004.4
20260505152355 75 220 14.0 24.0 0.00 0.00 0.00 46 1004.3
20260505151855 75 287 6.0 11.0 0.00 0.00 0.00 47 1004.5
20260505151352 76 188 9.0 14.0 0.00 0.00 0.00 46 1004.3
20260505150849 75 219 4.0 11.0 0.00 0.00 0.00 48 1004.5
20260505150347 74 202 4.0 21.0 0.00 0.00 0.00 47 1004.5
20260505140316 72 256 2.0 14.0 0.00 0.00 0.00 52 1004.6
20260505130240 66 106 2.0 9.0 0.00 0.00 0.00 67 1005.5
20260505124731 64 257 3.0 4.0 0.00 0.00 0.00 71 1005.7
20260505124227 63 155 0.0 4.0 0.00 0.00 0.00 73 1005.7
20260505123722 63 199 1.0 4.0 0.00 0.00 0.00 74 1005.7
20260505123220 62 222 4.0 6.0 0.00 0.00 0.00 73 1005.7
20260505122716 62 166 2.0 5.0 0.00 0.00 0.00 76 1005.7
20260505122214 61 88 1.0 2.0 0.00 0.00 0.00 79 1005.6
20260505121710 60 272 1.0 4.0 0.00 0.00 0.00 79 1005.7
20260505121207 60 163 2.0 4.0 0.00 0.00 0.00 80 1005.7
20260505120703 60 132 2.0 3.0 0.00 0.00 0.00 81 1005.8
20260505120159 59 146 1.0 3.0 0.00 0.00 0.00 81 1005.8
20260505115653 59 214 1.0 4.0 0.00 0.00 0.00 81 1005.4
20260505115151 59 103 2.0 3.0 0.00 0.00 0.00 81 1005.6
20260505114648 60 74 1.0 2.0 0.00 0.00 0.00 79 1005.1
20260505114144 60 155 2.0 5.0 0.00 0.00 0.00 77 1005.2
20260505113640 59 341 1.0 6.0 0.00 0.00 0.00 80 1005.6
20260505113137 59 260 2.0 5.0 0.00 0.00 0.00 81 1005.5
20260505112633 59 180 2.0 5.0 0.02 0.00 0.00 80 1005.4
20260505112132 58 238 0.0 3.0 0.02 0.00 0.00 81 1005.7
20260505111631 59 228 4.0 14.0 0.00 0.00 0.00 76 1005.9
20260505111127 58 131 3.0 4.0 0.00 0.00 0.00 73 1005.4
20260505110624 57 51 0.0 2.0 0.00 0.00 0.00 75 1005.6
20260505110121 57 24 0.0 2.0 0.00 0.00 0.00 76 1005.8
20260505102056 52 64 1.0 2.0 0.00 0.00 0.00 82 1005.6
20260505101555 53 56 0.0 2.0 0.00 0.00 0.00 81 1005.5
20260505101051 53 88 1.0 2.0 0.00 0.00 0.00 79 1005.3
20260505100548 54 65 2.0 3.0 0.00 0.00 0.00 78 1005.4
20260505100044 55 35 0.0 3.0 0.00 0.00 0.00 76 1005.3
20260505095541 55 89 0.0 2.0 0.00 0.00 0.00 76 1005.1
20260505095037 55 254 2.0 3.0 0.00 0.00 0.00 76 1005.2
20260505094534 55 331 1.0 1.0 0.00 0.00 0.00 77 1004.9
20260505094030 55 69 0.0 2.0 0.00 0.00 0.00 75 1004.8
20260505093527 56 249 0.0 2.0 0.00 0.00 0.00 74 1004.8
20260505093024 56 284 1.0 2.0 0.00 0.00 0.00 72 1004.7
20260505092521 56 303 0.0 1.0 0.00 0.00 0.00 73 1004.9
20260505092020 57 38 0.0 2.0 0.00 0.00 0.00 71 1004.8
20260505091516 57 285 2.0 2.0 0.00 0.00 0.00 70 1004.6
20260505091014 58 318 2.0 4.0 0.00 0.00 0.00 69 1004.5
20260505090512 57 343 1.0 4.0 0.00 0.00 0.00 70 1004.5
20260505090010 57 298 3.0 4.0 0.00 0.00 0.00 70 1004.6
20260505085508 57 320 2.0 3.0 0.00 0.00 0.00 70 1004.6
20260505085006 57 305 2.0 4.0 0.00 0.00 0.00 70 1004.7
20260505084503 57 347 1.0 3.0 0.00 0.00 0.00 69 1004.8
20260505084001 57 293 2.0 2.0 0.00 0.00 0.00 69 1004.5
20260505083458 57 317 1.0 2.0 0.00 0.00 0.00 69 1004.4
20260505082954 57 302 2.0 2.0 0.00 0.00 0.00 69 1004.7
20260505082450 57 300 2.0 2.0 0.00 0.00 0.00 68 1004.7
20260505081947 57 273 2.0 3.0 0.00 0.00 0.00 68 1004.5
20260505081444 58 274 1.0 3.0 0.00 0.00 0.00 67 1004.7
20260505080940 58 308 1.0 3.0 0.00 0.00 0.00 67 1004.5
20260505080436 58 311 2.0 2.0 0.00 0.00 0.00 67 1004.9
20260505075932 58 280 3.0 3.0 0.00 0.00 0.00 67 1004.8
20260505075429 58 321 2.0 2.0 0.00 0.00 0.00 66 1004.6
20260505074927 58 324 0.0 2.0 0.00 0.00 0.00 66 1004.7
20260505074424 59 291 1.0 2.0 0.00 0.00 0.00 66 1004.9
20260505073921 59 241 1.0 2.0 0.00 0.00 0.00 64 1004.8
20260505073419 60 243 0.0 2.0 0.00 0.00 0.00 62 1004.9
20260505072916 60 11 2.0 2.0 0.00 0.00 0.00 61 1004.7
20260505072411 60 318 1.0 1.0 0.00 0.00 0.00 62 1004.8
20260505071908 60 328 1.0 2.0 0.00 0.00 0.00 62 1004.8
20260505071404 60 302 1.0 2.0 0.00 0.00 0.00 62 1004.7
20260505070902 60 257 2.0 3.0 0.00 0.00 0.00 62 1004.8
20260505070358 60 126 0.0 2.0 0.00 0.00 0.00 61 1004.9
20260505065854 60 198 2.0 4.0 0.00 0.00 0.00 60 1004.6
20260505065351 60 310 0.0 2.0 0.00 0.00 0.00 61 1004.9
20260505064848 60 214 0.0 1.0 0.00 0.00 0.00 61 1004.9
20260505064345 60 123 0.0 3.0 0.00 0.00 0.00 60 1004.8
20260505063843 60 121 0.0 4.0 0.00 0.00 0.00 59 1005.0
20260505063339 60 254 2.0 2.0 0.00 0.00 0.00 59 1004.8
20260505062836 61 58 3.0 3.0 0.00 0.00 0.00 58 1004.8
20260505062333 62 198 1.0 4.0 0.00 0.00 0.00 56 1004.9
20260505061830 61 310 1.0 4.0 0.00 0.00 0.00 56 1005.0
20260505061328 61 1 1.0 4.0 0.00 0.00 0.00 57 1004.7
20260505060825 62 337 0.0 4.0 0.00 0.00 0.00 56 1004.7
20260505060322 62 88 1.0 6.0 0.00 0.00 0.00 56 1005.0
20260505055817 62 186 3.0 5.0 0.00 0.00 0.00 56 1004.7
20260505055314 62 215 2.0 3.0 0.00 0.00 0.00 56 1004.8
20260505054812 61 141 2.0 3.0 0.00 0.00 0.00 58 1004.9
20260505054308 60 304 2.0 3.0 0.00 0.00 0.00 59 1005.0
20260505053807 61 198 2.0 3.0 0.00 0.00 0.00 58 1005.1
20260505053303 60 179 3.0 3.0 0.00 0.00 0.00 58 1004.9
20260505052800 61 223 1.0 2.0 0.00 0.00 0.00 57 1005.0
20260505052257 61 212 3.0 4.0 0.00 0.00 0.00 56 1004.8
20260505051754 62 265 3.0 3.0 0.00 0.00 0.00 55 1005.0
20260505051252 62 336 2.0 4.0 0.00 0.00 0.00 54 1004.9
20260505050750 63 204 3.0 10.0 0.00 0.00 0.00 53 1004.8
20260505050248 61 236 7.0 8.0 0.00 0.00 0.00 55 1005.0
20260505041718 61 264 2.0 4.0 0.00 0.00 0.00 57 1004.8
20260505041215 62 20 2.0 2.0 0.00 0.00 0.00 55 1004.9
20260505040712 62 139 1.0 3.0 0.00 0.00 0.00 54 1004.7
20260505040209 62 105 1.0 4.0 0.00 0.00 0.00 54 1004.9
20260505035706 62 155 1.0 4.0 0.00 0.00 0.00 53 1004.8
20260505035202 62 245 4.0 4.0 0.00 0.00 0.00 53 1004.7
20260505034658 63 243 3.0 3.0 0.00 0.00 0.00 53 1004.6
20260505034156 63 188 2.0 4.0 0.00 0.00 0.00 52 1004.6
20260505033652 62 206 6.0 6.0 0.00 0.00 0.00 52 1004.7
20260505033151 63 189 2.0 5.0 0.00 0.00 0.00 52 1004.8
20260505032648 63 229 6.0 6.0 0.00 0.00 0.00 51 1004.8
20260505032144 63 267 6.0 6.0 0.00 0.00 0.00 51 1004.7
20260505031642 64 233 2.0 11.0 0.00 0.00 0.00 50 1004.8
20260505031137 63 188 4.0 5.0 0.00 0.00 0.00 51 1004.8
20260505030635 64 85 2.0 12.0 0.00 0.00 0.00 50 1004.8
20260505030130 64 97 4.0 9.0 0.00 0.00 0.00 50 1004.9
20260505025626 64 241 4.0 4.0 0.00 0.00 0.00 50 1004.8
20260505025125 64 297 3.0 8.0 0.00 0.00 0.00 49 1004.8
20260505024622 64 7 2.0 6.0 0.00 0.00 0.00 50 1004.6
20260505024119 64 117 0.0 5.0 0.00 0.00 0.00 49 1005.0
20260505023617 64 181 2.0 6.0 0.00 0.00 0.00 49 1005.1
20260505023114 64 261 2.0 4.0 0.00 0.00 0.00 49 1004.8
20260505022611 64 289 2.0 7.0 0.00 0.00 0.00 48 1005.0
20260505022108 64 297 4.0 10.0 0.00 0.00 0.00 48 1005.1
20260505021605 64 266 3.0 4.0 0.00 0.00 0.00 49 1005.1
20260505021102 64 259 2.0 4.0 0.00 0.00 0.00 48 1005.1
20260505020602 65 162 3.0 6.0 0.00 0.00 0.00 48 1005.0
20260505020059 65 189 1.0 5.0 0.00 0.00 0.00 47 1005.0
20260505015556 64 239 2.0 4.0 0.00 0.00 0.00 47 1005.0
20260505015053 64 265 2.0 6.0 0.00 0.00 0.00 47 1004.8
20260505014549 64 200 3.0 5.0 0.00 0.00 0.00 47 1004.9
20260505014047 64 162 3.0 5.0 0.00 0.00 0.00 47 1004.8
20260505013543 65 236 1.0 7.0 0.00 0.00 0.00 47 1004.9
20260505013041 64 164 2.0 4.0 0.00 0.00 0.00 47 1004.5
20260505012539 65 220 2.0 5.0 0.00 0.00 0.00 47 1004.5
20260505012036 64 247 3.0 4.0 0.00 0.00 0.00 47 1004.6
20260505011537 65 152 2.0 8.0 0.00 0.00 0.00 47 1004.6
20260505011034 65 199 5.0 7.0 0.00 0.00 0.00 46 1004.8
20260505010529 64 179 2.0 3.0 0.00 0.00 0.00 48 1004.4
20260505010026 64 234 2.0 3.0 0.00 0.00 0.00 48 1004.6
20260505005523 65 267 2.0 4.0 0.00 0.00 0.00 47 1004.5
20260505005020 65 213 1.0 6.0 0.00 0.00 0.00 46 1004.3
20260505004517 66 167 2.0 5.0 0.00 0.00 0.00 47 1004.4
20260505004014 66 262 6.0 6.0 0.00 0.00 0.00 44 1004.2